User: anonymous   Login
Location: Unspecified
(0.0000°N, 0.0000°E)
Time: 07:16:01
(UTC+00:00)
Language:

SAR-Lupe-5 - Orbit

View from above orbital plane
View from above orbital plane
View from above satellite
View from above satellite

Ground track
Ground track

The orbit data is extracted from the following two-line orbital elements,

1 33244U 08036A   19240.95498013 0.00000550  00000-0  20449-4 0    04
2 33244  98.1018 143.4057 0001999 344.5892  15.4107 15.27554408    01
Epoch (UTC): 28 August 2019 22:55:10
Eccentricity: 0.0001999
inclination: 98.1018°
perigee height: 482 km
apogee height: 484 km
right ascension of ascending node: 143.4057°
argument of perigee: 344.5892°
revolutions per day: 15.27554408
mean anomaly at epoch: 15.4107°
orbit number at epoch: 0

The dashed part of the orbit path shows where the satellite is in the earth's shadow,  

DLR